EW3708 Weather Reports


time (UTC)temp
C
wind
direction
speed
KPH
gust
KPH
rain 1hr
cm
rain 24hr
cm
rain mn
cm
humidity
%
barometer
mb
20260505184534 25 173 8.0 33.8 0.00 0.03 0.03 32 1006.2
20260505183027 26 143 8.0 35.4 0.00 0.03 0.03 33 1006.4
20260505181528 26 132 9.7 29.0 0.00 0.03 0.03 33 1006.7
20260505180022 25 213 9.7 29.0 0.00 0.03 0.03 32 1006.9
20260505174528 25 184 17.7 30.6 0.00 0.03 0.03 32 1006.9
20260505173017 25 148 11.3 32.2 0.00 0.03 0.03 36 1007.2
20260505171516 25 153 14.5 32.2 0.00 0.03 0.03 35 1007.1
20260505170018 24 116 9.7 27.4 0.00 0.03 0.03 36 1007.1
20260505164512 24 146 9.7 19.3 0.00 0.03 0.03 38 1007.4
20260505163013 24 214 8.0 27.4 0.00 0.03 0.03 40 1007.5
20260505161507 23 123 4.8 30.6 0.00 0.03 0.03 43 1007.8
20260505153106 22 227 6.4 17.7 0.00 0.03 0.03 47 1008.3
20260505151604 21 167 8.0 25.7 0.00 0.03 0.03 49 1008.2
20260505124555 17 171 3.2 9.7 0.00 0.03 0.03 62 1008.8
20260505123050 16 158 4.8 12.9 0.00 0.03 0.03 65 1008.9
20260505121558 15 167 6.4 16.1 0.00 0.03 0.03 68 1008.8
20260505120044 15 157 6.4 14.5 0.00 0.03 0.03 69 1008.8
20260505114540 14 248 4.8 12.9 0.00 0.03 0.03 72 1009.0
20260505113040 13 148 3.2 11.3 0.00 0.03 0.03 77 1008.8
20260505111541 12 136 3.2 8.0 0.00 0.03 0.03 79 1008.5
20260505101535 11 281 0.0 3.2 0.00 0.03 0.03 88 1008.5
20260505100034 11 281 0.0 3.2 0.00 0.03 0.03 88 1008.3
20260505094535 11 281 0.0 1.6 0.00 0.03 0.03 86 1008.3
20260505093034 11 281 0.0 3.2 0.03 0.03 0.03 85 1008.2
20260505091528 12 281 0.0 4.8 0.03 0.03 0.03 83 1008.1
20260505090021 12 287 0.0 8.0 0.03 0.03 0.03 80 1008.3
20260505084519 13 241 4.8 16.1 0.03 0.03 0.03 75 1008.1
20260505083014 13 147 3.2 6.4 0.00 0.00 0.00 65 1008.3
20260505081516 13 207 1.6 6.4 0.00 0.00 0.00 64 1008.4
20260505080010 13 144 3.2 6.4 0.00 0.00 0.00 63 1008.1
20260505074509 13 142 3.2 6.4 0.00 0.00 0.00 63 1008.1
20260505073008 13 153 1.6 8.0 0.00 0.00 0.00 62 1008.1
20260505071507 14 179 1.6 6.4 0.00 0.00 0.00 61 1008.2
20260505070006 14 149 3.2 9.7 0.00 0.00 0.00 61 1008.2
20260505064506 14 158 3.2 6.4 0.00 0.00 0.00 60 1008.4
20260505063002 14 184 3.2 11.3 0.00 0.00 0.00 59 1008.5
20260505061502 14 186 6.4 16.1 0.00 0.00 0.00 58 1008.6
20260505054559 14 142 4.8 14.5 0.00 0.00 0.00 57 1008.6
20260505053106 14 172 8.0 14.5 0.00 0.00 0.00 57 1008.6
20260505051554 14 138 4.8 16.1 0.00 0.00 0.00 56 1008.5
20260505041546 14 138 4.8 14.5 0.00 0.00 0.00 53 1008.4
20260505040044 15 139 3.2 12.9 0.00 0.00 0.00 53 1008.5
20260505034542 15 140 8.0 14.5 0.00 0.00 0.00 52 1008.4
20260505033104 15 133 6.4 22.5 0.00 0.00 0.00 51 1008.4
20260505031541 15 141 6.4 16.1 0.00 0.00 0.00 51 1008.5
20260505030043 15 155 9.7 17.7 0.00 0.00 0.00 51 1008.7
20260505024540 15 139 8.0 19.3 0.00 0.00 0.00 50 1008.8
20260505023048 15 143 9.7 16.1 0.00 0.00 0.00 50 1008.9
20260505021540 15 158 6.4 20.9 0.00 0.00 0.00 50 1008.9
20260505020045 15 156 6.4 17.7 0.00 0.00 0.00 50 1008.9
20260505014540 15 180 6.4 14.5 0.00 0.00 0.00 50 1008.8
20260505013038 16 148 6.4 17.7 0.00 0.00 0.00 49 1008.8
20260505011537 16 164 4.8 16.1 0.00 0.00 0.00 49 1008.8
20260505010041 16 148 4.8 16.1 0.00 0.00 0.00 48 1008.6
20260505004545 16 156 8.0 17.7 0.00 0.00 0.00 47 1008.5
20260505003038 17 154 6.4 12.9 0.00 0.00 0.00 46 1008.4
20260505001535 17 134 4.8 12.9 0.00 0.00 0.00 45 1008.3
20260505000037 17 136 4.8 12.9 0.00 0.00 0.00 44 1008.1
20260504234553 17 130 8.0 14.5 0.00 0.00 0.00 43 1008.0
20260504233035 18 179 4.8 14.5 0.00 0.00 0.00 43 1008.0
20260504231545 18 152 3.2 17.7 0.00 0.00 0.00 42 1007.8
20260504230034 18 165 6.4 19.3 0.00 0.00 0.00 40 1007.7
20260504224532 19 151 8.0 20.9 0.00 0.00 0.00 39 1007.6
20260504223031 19 158 8.0 16.1 0.00 0.00 0.00 38 1007.5
20260504221530 20 136 6.4 19.3 0.00 0.00 0.00 37 1007.7
20260504220028 20 210 4.8 22.5 0.00 0.00 0.00 36 1007.7
20260504214535 20 230 9.7 25.7 0.00 0.00 0.00 35 1007.8
20260504213029 20 213 8.0 22.5 0.00 0.00 0.00 35 1007.8
20260504211525 20 251 6.4 14.5 0.00 0.00 0.00 35 1008.0
20260504210023 20 227 4.8 20.9 0.00 0.00 0.00 35 1008.0
20260504204549 20 115 8.0 16.1 0.00 0.00 0.00 36 1008.2
20260504203019 20 213 4.8 17.7 0.00 0.00 0.00 35 1008.4
20260504201517 20 159 8.0 19.3 0.00 0.00 0.00 36 1008.5
20260504200016 20 211 3.2 20.9 0.00 0.00 0.00 33 1008.6
20260504194513 20 147 9.7 19.3 0.00 0.00 0.00 34 1008.7
20260504193020 20 155 6.4 17.7 0.00 0.00 0.00 34 1008.9
20260504191510 19 182 11.3 22.5 0.00 0.00 0.00 36 1009.2